Regional Weather Roundup
Issued by NWS

Home | Current Version | Previous Version | Text Only | Print | Product List | Glossary Off
Versions: 1 2 3 4 5 6 7 8 9 10 11 12 13 14 15 16 17 18 19 20 21 22 23 24 25 26 27 28 29 30 31 32 33 34 35 36 37 38 39 40 41 42 43 44 45 46 47 48 49 50

000
ASUS45 KCYS 282010
RWRWY

WYOMING REGIONAL WEATHER ROUNDUP
NATIONAL WEATHER SERVICE CHEYENNE WY
200 PM MDT FRI AUG 28 2015

NOTE:  "FAIR" INDICATES FEW OR NO CLOUDS BELOW 12,000 FEET
WITH NO SIGNIFICANT WEATHER AND/OR OBSTRUCTIONS TO VISIBILITY.

WYZ001-282100-
YELLOWSTONE NATIONAL PARK

CITY           SKY/WX    TMP DP  RH WIND       PRES   REMARKS
LK YELLOWSTONE   N/A     67  40  37 E7        30.39F
W YELLOWSTONE  NOT AVBL

$$
WYZ002>013-054>058-071-098>099-282100-
NORTHERN WYOMING

CITY           SKY/WX    TMP DP  RH WIND       PRES   REMARKS
JACKSON        FAIR      79  39  24 S3        30.30F
CODY           FAIR      82  41  23 E13       30.15F
GREYBULL       FAIR      82  46  28 VRB5      30.11F
WORLAND        FAIR      82  49  31 W6        30.13F
SHERIDAN       FAIR      89  39  17 CALM      30.09F HAZE
BUFFALO        FAIR      84  39  20 VRB5      30.17F
GILLETTE       FAIR      84  42  22 W7        30.13F
HULETT         FAIR      82  45  26 W6        30.12S
NEWCASTLE      FAIR      82  37  20 NW5       30.13S

$$
WYZ014>020-022>026-101>103-282100-
CENTRAL WYOMING

CITY           SKY/WX    TMP DP  RH WIND       PRES   REMARKS
BIG PINEY      FAIR      79  34  19 VRB7      30.35F
PINEDALE       FAIR      75  30  19 NW8G18    30.36F
DUBOIS         FAIR      77  28  16 N16G23    30.31F
LANDER         FAIR      81  39  22 CALM      30.22F
RIVERTON       FAIR      79  50  36 VRB6      30.24F
CASPER         FAIR      81  40  23 W7        30.21F
DOUGLAS        FAIR      85  42  22 W10       30.19F

$$
WYZ021-027>030-104>119-282100-
SOUTHERN WYOMING

CITY           SKY/WX    TMP DP  RH WIND       PRES   REMARKS
EVANSTON       FAIR      76  33  21 VRB6      30.36F
KEMMERER       FAIR      79  28  15 NW10G23   30.38F
FORT BRIDGER   PTCLDY    82  30  15 NW5       30.38F
ROCK SPRINGS   FAIR      78  33  19 MISG      30.34F
DIXON          FAIR      78  38  23 W3        30.36F
RAWLINS        FAIR      76  36  23 VRB5      30.33F HAZE
SARATOGA       FAIR      73  41  31 N8        30.37F
LARAMIE        FAIR      73  40  30 N8        30.36F
CHEYENNE       FAIR      79  41  25 W13       30.27F
TORRINGTON     FAIR      87  43  21 VRB5      30.11F
PINE BLUFFS    FAIR      82  36  18 NW14G23   30.20F

$$



USA.gov is the U.S. government's official web portal to all federal, state and local government web resources and services.